User: anonymous   Login
Location: Caltech
(34.1382°N, 118.1253°W)
Time: 20:08:18
(UTC-07:00)
Language:

Cosmos 1833 - Orbit

View from above orbital plane
View from above orbital plane
View from above satellite
View from above satellite

Ground track
Ground track

The orbit data is extracted from the following two-line orbital elements,

1 17589U 87027A   15087.01126869 -.00000236  00000-0 -10126-3 0  9994
2 17589 070.9111 091.4752 0011013 099.4602 325.1619 14.12829736445592
Epoch (UTC): 28 March 2015 00:16:13
Eccentricity: 0.0011013
inclination: 70.9111°
perigee height: 842 km
apogee height: 857 km
right ascension of ascending node: 91.4752°
argument of perigee: 99.4602°
revolutions per day: 14.12829736
mean anomaly at epoch: 325.1619°
orbit number at epoch: 44559

The dashed part of the orbit path shows where the satellite is in the earth's shadow,  

DLR